Hamilton, OH

5:30 PM EDT on October 17, 2017 (GMT -0400)
Butler County Regional

Weather History for KHAO - March, 2014

Change the Weather History Date:

Monday, March 3, 2014

  Actual Average (KLUK) Record (KLUK)
Temperature  
Mean Temperature 14 °F -  
Max Temperature 19 °F 50 °F 78 °F (1992)
Min Temperature 6 °F 32 °F -6 °F (1980)
Degree Days  
Heating Degree Days 52    
Moisture  
Dew Point 3 °F    
Average Humidity 60    
Maximum Humidity 81    
Minimum Humidity 43    
Precipitation  
Precipitation 0.00 in - - ()
Sea Level Pressure  
Sea Level Pressure 30.39 in    
Wind  
Wind Speed 8 mph (NNE)    
Max Wind Speed 14 mph    
Max Gust Speed 22 mph    
Visibility 9 miles    
Events Snow    
Averages and records for this station are not official NWS values.
T = Trace of Precipitation, MM = Missing Value Source: NWS Daily Summary

Daily Weather History Graph

Daily Weather History Graph

Search for Another Location

Airport or City:

Trip Planner

Search our weather history database for the weather conditions in past years. The results will help you decide how hot, cold, wet, or windy it might be!

Date:

Astronomy

Mar. 03, 2014 Rise Set
Actual Time 7:07 AM EST 6:32 PM EST
Civil Twilight 6:41 AM EST 6:59 PM EST
Nautical Twilight 6:10 AM EST 7:30 PM EST
Astronomical Twilight 5:38 AM EST 8:01 PM EST
Moon 8:16 AM EST (3/3) 9:33 PM EST (3/3)
Length of Visible Light 12h 18m
Length of Day
11h 24m
Waxing Crescent, 8% of the Moon is Illuminated
Mar 3
Waxing Crescent
Mar 8
First Quarter
Mar 16
Full
Mar 23
Last Quarter
Mar 30
New

Hourly Weather History & Observations

Time (EST) Temp. Windchill Dew Point Humidity Pressure Visibility Wind Dir Wind Speed Gust Speed Precip Events Conditions
12:37 AM 16.0 °F 7.4 °F 10.0 °F 77% 30.26 in 2.5 mi NNE 5.8 mph - 0.00 in Snow Light Snow
12:53 AM 16.0 °F 7.4 °F 10.9 °F 81% 30.29 in 3.0 mi NNE 5.8 mph - 0.00 in Snow Light Snow
1:53 AM 17.1 °F 6.6 °F 9.0 °F 71% 30.29 in 10.0 mi NNE 8.1 mph - 0.00 in   Overcast
2:53 AM 17.1 °F 4.3 °F 8.1 °F 68% 30.29 in 10.0 mi NNE 11.5 mph - N/A   Overcast
3:53 AM 16.0 °F 2.3 °F 7.0 °F 68% 30.30 in 10.0 mi NNE 12.7 mph - N/A   Scattered Clouds
4:53 AM 15.1 °F 3.3 °F 5.0 °F 64% 30.32 in 10.0 mi North 9.2 mph - N/A   Clear
5:53 AM 14.0 °F 2.0 °F 3.9 °F 64% 30.32 in 10.0 mi NNE 9.2 mph - N/A   Clear
6:53 AM 12.9 °F -2.2 °F 1.0 °F 59% 30.34 in 10.0 mi NNE 13.8 mph 21.9 mph N/A   Clear
7:53 AM 12.9 °F -0.9 °F 1.9 °F 62% 30.37 in 10.0 mi NNE 11.5 mph - N/A   Clear
8:53 AM 14.0 °F 2.0 °F 1.9 °F 59% 30.39 in 10.0 mi NNE 9.2 mph - N/A   Clear
9:53 AM 14.0 °F 0.5 °F 1.9 °F 59% 30.42 in 10.0 mi NNE 11.5 mph - N/A   Clear
10:53 AM 15.1 °F 1.8 °F 3.0 °F 59% 30.43 in 10.0 mi NE 11.5 mph - N/A   Clear
11:53 AM 18.0 °F 7.7 °F 3.9 °F 54% 30.43 in 10.0 mi NNE 8.1 mph - N/A   Clear
12:53 PM 19.0 °F 6.8 °F 3.9 °F 52% 30.44 in 10.0 mi NE 11.5 mph - N/A   Clear
1:53 PM 19.0 °F 6.8 °F -0.0 °F 43% 30.42 in 10.0 mi NNE 11.5 mph - N/A   Clear
2:53 PM 19.9 °F 9.3 °F 1.9 °F 46% 30.44 in 10.0 mi North 9.2 mph - N/A   Clear
3:53 PM 19.9 °F 10.1 °F 1.0 °F 44% 30.44 in 10.0 mi North 8.1 mph - N/A   Clear
4:53 PM 19.0 °F 6.8 °F 1.0 °F 46% 30.45 in 10.0 mi North 11.5 mph - N/A   Clear
5:53 PM 18.0 °F 7.7 °F 1.0 °F 48% 30.46 in 10.0 mi North 8.1 mph - N/A   Clear
6:53 PM 15.1 °F 5.2 °F 1.0 °F 54% 30.47 in 10.0 mi North 6.9 mph - N/A   Clear
7:53 PM 12.9 °F 2.6 °F 1.0 °F 59% 30.48 in 10.0 mi North 6.9 mph - N/A   Clear
8:53 PM 12.0 °F 0.5 °F -0.9 °F 56% 30.46 in 10.0 mi NNE 8.1 mph - N/A   Clear
9:53 PM 9.0 °F - -0.0 °F 67% 30.46 in 10.0 mi Calm Calm - N/A   Clear
10:53 PM 8.1 °F - 1.0 °F 73% 30.45 in 10.0 mi Calm Calm - N/A   Clear
11:53 PM 6.1 °F - -0.0 °F 76% 30.44 in 10.0 mi Calm Calm - N/A   Clear